Weather History for KRPD - October, 2013

Change the Weather History Date:

Saturday, October 5, 2013

  Actual Average Record
Temperature  
Mean Temperature 55 °F -  
Max Temperature 60 °F - - ()
Min Temperature 50 °F - - ()
Degree Days  
Heating Degree Days 10    
Growing Degree Days 5 (Base 50)    
Moisture  
Dew Point 54 °F    
Average Humidity 94    
Maximum Humidity 96    
Minimum Humidity 90    
Precipitation  
Precipitation 1.62 in - - ()
Sea Level Pressure  
Sea Level Pressure 29.83 in    
Wind  
Wind Speed 8 mph (East)    
Max Wind Speed 17 mph    
Max Gust Speed 23 mph    
Visibility 7 miles    
Events Rain , Thunderstorm    
T = Trace of Precipitation, MM = Missing Value Source: NWS Daily Summary

Daily Weather History Graph

Daily Weather History Graph

Search for Another Location

Airport or City:

Trip Planner

Search our weather history database for the weather conditions in past years. The results will help you decide how hot, cold, wet, or windy it might be!

Date:

Astronomy

Oct. 05, 2013 Rise Set
Actual Time 7:10 AM CDT 6:39 PM CDT
Civil Twilight 6:41 AM CDT 7:08 PM CDT
Nautical Twilight 6:06 AM CDT 7:43 PM CDT
Astronomical Twilight 5:32 AM CDT 8:17 PM CDT
Moon 7:54 AM CDT (10/5) 6:53 PM CDT (10/5)
Length of Visible Light 12h 27m
Length of Day
11h 28m
New Moon, 1% of the Moon is Illuminated
Oct 5
New Moon
Oct 11
First Quarter
Oct 18
Full
Oct 26
Last Quarter
Nov 3
New

Hourly Weather History & Observations

Time (CDT) Temp. Dew Point Humidity Pressure Visibility Wind Dir Wind Speed Gust Speed Precip Events Conditions
12:15 AM 55.6 °F 52.7 °F 90% 29.94 in 5.0 mi East 13.8 mph 23.0 mph N/A Rain Light Rain
12:35 AM 55.4 °F 52.7 °F 91% 29.95 in 10.0 mi East 11.5 mph - 0.02 in Rain , Thunderstorm Rain
12:55 AM 54.9 °F 52.7 °F 92% 29.95 in 7.0 mi East 11.5 mph 17.3 mph 0.07 in Rain , Thunderstorm Thunderstorms and Rain
1:15 AM 54.7 °F 52.7 °F 93% 29.95 in 5.0 mi East 8.1 mph - 0.08 in Rain , Thunderstorm Heavy Thunderstorms and Rain
1:35 AM 54.7 °F 52.7 °F 93% 29.97 in 5.0 mi East 6.9 mph - 0.15 in Rain Rain
1:55 AM 54.7 °F 52.7 °F 93% 29.95 in 4.0 mi ENE 5.8 mph - 0.25 in Rain Heavy Rain
2:15 AM 54.5 °F 52.7 °F 94% 29.94 in 5.0 mi ENE 6.9 mph - 0.08 in Rain , Thunderstorm Thunderstorms and Rain
2:35 AM 54.5 °F 52.7 °F 94% 29.93 in 5.0 mi ENE 9.2 mph - 0.15 in Rain Heavy Rain
2:55 AM 54.5 °F 52.7 °F 94% 29.87 in 7.0 mi ENE 17.3 mph - 0.21 in Rain Light Rain
3:15 AM 54.5 °F 52.3 °F 92% 29.86 in 10.0 mi East 16.1 mph 20.7 mph N/A   Mostly Cloudy
3:35 AM 54.7 °F 52.7 °F 93% 29.85 in 10.0 mi East 12.7 mph 18.4 mph N/A   Mostly Cloudy
3:55 AM 55.4 °F 53.1 °F 92% 29.86 in 10.0 mi East 12.7 mph 18.4 mph N/A   Overcast
4:15 AM 55.4 °F 53.2 °F 92% 29.86 in 10.0 mi ESE 8.1 mph - N/A Thunderstorm Overcast
4:35 AM 55.4 °F 53.6 °F 94% 29.90 in 10.0 mi East 5.8 mph - N/A   Overcast
4:55 AM 55.4 °F 53.6 °F 94% 29.84 in 10.0 mi East 15.0 mph 20.7 mph 0.05 in Rain Light Rain
5:15 AM 55.6 °F 53.6 °F 93% 29.86 in 10.0 mi ESE 10.4 mph - N/A   Overcast
5:35 AM 55.8 °F 53.8 °F 93% 29.88 in 10.0 mi East 4.6 mph - N/A Rain Light Rain
5:55 AM 55.9 °F 54.0 °F 93% 29.85 in 10.0 mi ENE 9.2 mph - N/A Rain Light Rain
6:15 AM 56.3 °F 54.5 °F 94% 29.89 in 10.0 mi Calm Calm - 0.01 in Rain Light Rain
6:35 AM 56.3 °F 54.3 °F 93% 29.88 in 10.0 mi NE 5.8 mph - 0.01 in Rain Light Rain
6:55 AM 56.5 °F 54.7 °F 94% 29.88 in 10.0 mi Calm Calm - 0.01 in Rain Rain
7:15 AM 56.7 °F 54.9 °F 94% 29.89 in 10.0 mi East 3.5 mph - N/A   Overcast
7:35 AM 56.5 °F 54.7 °F 94% 29.88 in 7.0 mi East 5.8 mph - 0.03 in Rain Rain
7:55 AM 56.8 °F 55.0 °F 94% 29.88 in 10.0 mi East 4.6 mph - 0.03 in Rain Rain
8:15 AM 57.2 °F 55.4 °F 94% 29.87 in 10.0 mi East 8.1 mph - N/A   Overcast
8:35 AM 57.2 °F 55.4 °F 94% 29.87 in 10.0 mi East 8.1 mph - N/A   Overcast
8:55 AM 57.4 °F 55.4 °F 93% 29.87 in 10.0 mi East 8.1 mph - N/A   Overcast
9:15 AM 57.6 °F 55.4 °F 92% 29.88 in 10.0 mi East 8.1 mph - N/A   Overcast
9:35 AM 57.4 °F 55.4 °F 93% 29.86 in 10.0 mi ENE 9.2 mph - 0.01 in Rain Light Rain
9:55 AM 57.6 °F 55.6 °F 93% 29.86 in 10.0 mi ENE 5.8 mph - 0.02 in Rain Light Rain
10:15 AM 58.1 °F 56.3 °F 94% 29.88 in 10.0 mi East 10.4 mph - 0.01 in   Overcast
10:35 AM 58.3 °F 56.1 °F 93% 29.89 in 10.0 mi East 8.1 mph - 0.01 in   Overcast
10:55 AM 58.3 °F 56.3 °F 93% 29.89 in 10.0 mi East 8.1 mph - 0.01 in   Overcast
11:15 AM 58.1 °F 56.3 °F 94% 29.89 in 7.0 mi East 8.1 mph - N/A   Overcast
11:35 AM 58.3 °F 56.5 °F 94% 29.88 in 2.0 mi East 9.2 mph - N/A Rain Rain
11:55 AM 58.1 °F 56.3 °F 94% 29.87 in 2.0 mi East 8.1 mph - N/A   Overcast
12:15 PM 58.3 °F 56.5 °F 94% 29.87 in 1.2 mi East 6.9 mph - N/A   Overcast
12:35 PM 58.6 °F 56.8 °F 94% 29.86 in 1.5 mi East 6.9 mph - N/A   Overcast
12:55 PM 58.8 °F 57.0 °F 94% 29.86 in 1.2 mi East 5.8 mph - N/A   Overcast
1:15 PM 59.0 °F 57.2 °F 94% 29.85 in 1.5 mi East 9.2 mph - N/A   Overcast
1:35 PM 59.2 °F 57.4 °F 94% 29.84 in 2.0 mi East 6.9 mph - N/A   Overcast
1:55 PM 59.4 °F 57.6 °F 94% 29.83 in 1.5 mi East 6.9 mph - N/A   Overcast
2:15 PM 60.1 °F 58.3 °F 94% 29.82 in 3.0 mi East 8.1 mph - N/A   Overcast
2:35 PM 60.1 °F 58.3 °F 94% 29.81 in 5.0 mi East 5.8 mph - N/A   Overcast
2:55 PM 60.1 °F 58.1 °F 93% 29.80 in 10.0 mi East 6.9 mph - N/A   Overcast
3:15 PM 59.9 °F 58.1 °F 94% 29.79 in 2.0 mi East 5.8 mph - N/A Rain Light Rain
3:35 PM 59.9 °F 58.1 °F 94% 29.79 in 1.8 mi East 5.8 mph - N/A   Drizzle
3:55 PM 59.9 °F 58.3 °F 94% 29.79 in 1.8 mi East 3.5 mph - 0.01 in   Heavy Drizzle
4:15 PM 60.1 °F 58.5 °F 94% 29.78 in 2.0 mi ENE 3.5 mph - 0.01 in   Drizzle
4:35 PM 59.9 °F 58.3 °F 94% 29.77 in 4.0 mi NE 3.5 mph - 0.01 in   Drizzle
4:55 PM 59.9 °F 58.3 °F 94% 29.76 in 5.0 mi NE 3.5 mph - 0.02 in   Drizzle
5:15 PM 59.9 °F 58.3 °F 94% 29.75 in 4.0 mi NNE 3.5 mph - N/A   Heavy Drizzle
5:35 PM 59.4 °F 58.1 °F 96% 29.74 in 2.5 mi North 3.5 mph - 0.03 in Rain Rain
5:55 PM 59.0 °F 57.6 °F 95% 29.72 in 1.5 mi North 3.5 mph - 0.13 in Rain Rain
6:15 PM 58.6 °F 57.4 °F 96% 29.72 in 3.0 mi WSW 6.9 mph - 0.08 in Rain Heavy Rain
6:35 PM 58.5 °F 57.2 °F 96% 29.74 in 2.0 mi WSW 6.9 mph - 0.32 in Rain Heavy Rain
6:55 PM 56.7 °F 55.4 °F 96% 29.75 in 2.5 mi SW 9.2 mph - 0.61 in Rain Rain
7:15 PM 54.7 °F 53.4 °F 96% 29.75 in 7.0 mi WSW 4.6 mph - 0.01 in Rain Rain
7:35 PM 53.8 °F 52.5 °F 95% 29.78 in 7.0 mi SW 11.5 mph 18.4 mph 0.03 in Rain Rain
7:55 PM 52.5 °F 51.3 °F 95% 29.77 in 4.0 mi WSW 5.8 mph - 0.08 in Rain Rain
8:15 PM 51.3 °F 50.0 °F 95% 29.77 in 10.0 mi West 3.5 mph - 0.01 in Rain , Thunderstorm Light Thunderstorms and Rain
8:35 PM 51.4 °F 50.2 °F 95% 29.76 in 4.0 mi NW 3.5 mph - 0.09 in Rain Heavy Rain
8:55 PM 51.1 °F 49.8 °F 95% 29.76 in 10.0 mi NW 5.8 mph - 0.11 in Rain Rain
9:15 PM 50.5 °F 49.3 °F 95% 29.73 in 10.0 mi North 9.2 mph - 0.01 in   Overcast
9:35 PM 50.5 °F 49.3 °F 95% 29.75 in 10.0 mi Calm Calm - 0.01 in   Overcast
9:55 PM 50.9 °F 49.6 °F 95% 29.76 in 10.0 mi Calm Calm - 0.01 in   Overcast
10:15 PM 50.9 °F 49.6 °F 95% 29.76 in 10.0 mi SSW 5.8 mph - N/A   Overcast
10:35 PM 50.9 °F 49.5 °F 95% 29.77 in 10.0 mi SW 5.8 mph - N/A   Overcast
10:55 PM 50.9 °F 49.5 °F 95% 29.77 in 10.0 mi Calm Calm - N/A   Overcast
11:15 PM 50.9 °F 49.6 °F 95% 29.76 in 10.0 mi WSW 3.5 mph - N/A   Overcast
11:35 PM 51.1 °F 50.0 °F 96% 29.76 in 10.0 mi Calm Calm - N/A   Overcast
11:55 PM 51.3 °F 50.0 °F 95% 29.75 in 10.0 mi SW 3.5 mph - N/A   Overcast